Tracking 29528 objects as of 12-Sep-2024
HD Live streaming from Space Station
objects crossing your sky now

FENGYUN 1C DEB

Track FENGYUN 1C DEB now!
10-day predictions


NORAD ID: 32425
Int'l Code: 1999-025DAM
Perigee: 679.1 km
Apogee: 1,020.6 km
Inclination: 96.7 °
Period: 101.8 minutes
Semi major axis: 7220 km
RCS: 0.003 m2 (small)
Launch date: May 10, 1999
Source: People's Republic of China (PRC)
Launch site: Taiyaun Space Center, China (TSC)

Note: This is SATELLITE DEBRIS
Your satellite tracking list
Your tracking list is empty




NASA's NSSDC Master Catalog

Two Line Element Set (TLE):
1 32425U 99025DAM 24255.95683723  .00002770  00000-0  11069-2 0  9997
2 32425  96.7166 150.5960 0236519 236.0426 121.8073 14.14884056630718
Source of the keplerian elements: AFSPC